Flag for Canada Weather past 2 weeks in Vancouver, British Columbia, Canada

Now
66 °F

Passing clouds.


Feels Like: 66 °F
Forecast: 58 / 84 °F
Wind: 12 mph from Northwest

Location: Vancouver International Air-Port

Current Time: Aug 2, 2015 at 3:39:14 AM

Latest Report: Aug 2, 2015 at 3:00 AM


Visibility: 20 mi

Pressure: 29.90 "Hg

Humidity: 88%

Dew point: 63 °F

Location of VancouverLocation

Historic Weather in Vancouver — Graph

°F

Vancouver temperature yesterday

Maximum temperature yesterday: 75 °F (at 2:00 PM)
Minimum temperature yesterday: 63 °F (at 3:00 AM)
Average temperature yesterday: 69 °F

Past Weeks' High & Low Weather Summary

 TemperatureHumidityPressure
High81 °F (Jul 19, 6:00 PM)94% (Jul 24, 10:00 AM)30.28 "Hg (Jul 24, 10:00 AM)
Low55 °F (Jul 27, 3:00 AM)46% (Jul 21, 7:00 PM)29.85 "Hg (Jul 22, 8:00 PM)
Average66 °F73%30.02 "Hg
* Reported Jul 18 2:00 AM — Aug 2 2:00 AM, Vancouver, Weather by CustomWeather, © 2015

Note: Actual official high and low records may vary slightly from our data, if they occured in-between our weather recording intervals... More about our weather records

Advertising

Vancouver weather history for previous 24 hours

 ConditionsComfort  
Time TempWeatherWind HumidityBarometerVisibility
2:00 AM
Sun, Aug 2
66 °FPassing clouds.12 mph88%29.90 "Hg20 mi
1:00 AM66 °FPassing clouds.8 mph88%29.90 "Hg20 mi
12:00 AM68 °FPassing clouds.3 mph78%29.90 "Hg30 mi
11:00 PM
Sat, Aug 1
66 °FPassing clouds.2 mph83%29.90 "Hg30 mi
10:00 PM68 °FPassing clouds.7 mph83%29.91 "Hg30 mi
9:00 PM70 °FScattered clouds.5 mph78%29.91 "Hg30 mi
8:00 PM70 °FPassing clouds.6 mph78%29.90 "Hg30 mi
7:00 PM73 °FPassing clouds.7 mph65%29.90 "Hg30 mi
6:00 PM73 °FScattered clouds.13 mph69%29.92 "Hg30 mi
5:00 PM75 °FScattered clouds.12 mph61%29.93 "Hg30 mi
4:00 PM75 °FScattered clouds.8 mph61%29.95 "Hg30 mi
3:00 PM75 °FScattered clouds.8 mph61%29.96 "Hg30 mi
2:00 PM75 °FBroken clouds.10 mph61%29.98 "Hg30 mi
1:00 PM72 °FBroken clouds.12 mph73%29.99 "Hg30 mi
12:00 PM72 °FBroken clouds.14 mph69%30.00 "Hg30 mi
11:00 AM70 °FPartly sunny.15 mph73%30.01 "Hg30 mi
10:00 AM70 °FScattered clouds.15 mph73%30.01 "Hg30 mi
9:00 AM68 °FPassing clouds.15 mph78%30.03 "Hg30 mi
8:00 AM68 °FPassing clouds.13 mph78%30.02 "Hg30 mi
7:00 AM66 °FPassing clouds.13 mph83%30.01 "Hg30 mi
6:00 AM66 °FClear.17 mph78%30.00 "Hg30 mi
5:00 AM64 °FClear.9 mph88%29.99 "Hg30 mi
4:00 AM64 °FClear.10 mph88%29.98 "Hg30 mi
3:00 AM63 °FClear.7 mph88%29.98 "Hg30 mi
Weather by CustomWeather, © 2015

See weather overviewHow to use our weather pages